Weather History for Greenville, AL

Change the Weather History Date:

Thursday, April 18, 2013

  Actual Average Record
Temperature  
Mean Temperature 72 °F -  
Max Temperature 82 °F 78 °F 93 °F (1955)
Min Temperature 62 °F 53 °F 42 °F (1947)
Cooling Degree Days 7    
Growing Degree Days 22 (Base 50)    
Moisture  
Dew Point 63 °F    
Average Humidity 75    
Maximum Humidity 93    
Minimum Humidity 52    
Precipitation  
Precipitation 0.00 in - - ()
Sea Level Pressure  
Sea Level Pressure 29.94 in    
Wind  
Wind Speed 6 mph (SSE)    
Max Wind Speed 14 mph    
Max Gust Speed 23 mph    
Visibility 10 miles    
Events      
Averages and records for this station are not official NWS values.
T = Trace of Precipitation, MM = Missing Value Source: NWS Daily Summary

Daily Weather History Graph

Daily Weather History Graph

Search for Another Location

Airport:

Trip Planner

Search our weather history database for the weather conditions in past years. The results will help you decide how hot, cold, wet, or windy it might be!

Date:

Astronomy

Apr. 18, 2013 Rise Set
Actual Time 6:14 AM CDT 7:17 PM CDT
Civil Twilight 5:48 AM CDT 7:43 PM CDT
Nautical Twilight 5:19 AM CDT 8:13 PM CDT
Astronomical Twilight 4:48 AM CDT 8:43 PM CDT
Moon 12:29 PM CDT (4/18) 1:27 AM CDT (4/18)
Length of Visible Light 13h 54m
Length of Day
13h 03m
First Quarter, 52% of the Moon is Illuminated
Apr 18
First Quarter
Apr 25
Full
May 2
Last Quarter
May 9
New
May 17
First Quarter

Hourly Weather History & Observations

Time (CDT) Temp. Heat Index Dew Point Humidity Pressure Visibility Wind Dir Wind Speed Gust Speed Precip Events Conditions
12:56 AM 66.9 °F - 62.1 °F 84% 30.03 in 10.0 mi Calm Calm - N/A   Clear
1:56 AM 66.0 °F - 61.0 °F 84% 30.01 in 10.0 mi ESE 3.5 mph - N/A   Clear
2:56 AM 64.0 °F - 60.1 °F 87% 30.00 in 10.0 mi SE 3.5 mph - N/A   Clear
3:56 AM 63.0 °F - 60.1 °F 90% 29.97 in 10.0 mi SE 5.8 mph - N/A   Clear
4:56 AM 63.0 °F - 60.1 °F 90% 29.97 in 10.0 mi SE 4.6 mph - N/A   Clear
5:56 AM 62.1 °F - 60.1 °F 93% 29.96 in 10.0 mi ESE 5.8 mph - N/A   Clear
6:56 AM 63.0 °F - 60.1 °F 90% 29.98 in 10.0 mi ESE 3.5 mph - N/A   Clear
7:56 AM 66.9 °F - 63.0 °F 87% 30.00 in 10.0 mi SE 8.1 mph - N/A   Clear
8:56 AM 71.1 °F - 64.0 °F 78% 30.00 in 10.0 mi SE 8.1 mph 16.1 mph N/A   Clear
9:56 AM 75.0 °F - 64.0 °F 69% 29.99 in 10.0 mi SSE 12.7 mph 17.3 mph N/A   Clear
10:56 AM 77.0 °F - 64.0 °F 64% 29.98 in 10.0 mi SE 11.5 mph 20.7 mph N/A   Partly Cloudy
11:56 AM 79.0 °F - 64.0 °F 60% 29.96 in 10.0 mi SSE 9.2 mph 18.4 mph N/A   Scattered Clouds
12:56 PM 80.1 °F 81.5 °F 63.0 °F 56% 29.95 in 10.0 mi SSE 11.5 mph 18.4 mph N/A   Mostly Cloudy
1:56 PM 81.0 °F 81.9 °F 62.1 °F 52% 29.94 in 10.0 mi South 13.8 mph 18.4 mph N/A   Mostly Cloudy
2:56 PM 81.0 °F 82.2 °F 63.0 °F 54% 29.91 in 10.0 mi South 12.7 mph 20.7 mph N/A   Mostly Cloudy
3:56 PM 82.0 °F 83.1 °F 63.0 °F 52% 29.89 in 10.0 mi South 10.4 mph 23.0 mph N/A   Clear
4:56 PM 82.0 °F 83.4 °F 64.0 °F 54% 29.88 in 10.0 mi South 9.2 mph - N/A   Scattered Clouds
6:56 PM 77.0 °F - 64.9 °F 66% 29.88 in 10.0 mi SSE 6.9 mph - N/A   Clear
7:56 PM 75.0 °F - 66.0 °F 73% 29.89 in 10.0 mi SSE 10.4 mph - N/A   Clear
8:56 PM 73.0 °F - 66.0 °F 79% 29.89 in 10.0 mi SSE 8.1 mph - N/A   Clear
9:56 PM 72.0 °F - 66.9 °F 84% 29.89 in 10.0 mi South 8.1 mph - N/A   Mostly Cloudy
10:56 PM 72.0 °F - 66.9 °F 84% 29.88 in 10.0 mi South 13.8 mph 19.6 mph N/A   Overcast
11:56 PM 72.0 °F - 66.9 °F 84% 29.86 in 10.0 mi South 10.4 mph - N/A   Overcast